Location: Ayer Observatory
(42.2600°N, 71.0700°W)
Time: 21:37:56
(UTC-04:00)

FO-29 - Pass Details

Date: 23 August 2019
Orbit: 801 x 1321 km, 98.6° (Epoch: 23 October)

Event Time Altitude Azimuth Distance (km) Brightness Sun altitude
Exits shadow 04:50:51 16° 258° (WSW) 2,057 10.6 -12.6°
Maximum altitude 04:51:34 16° 268° (W) 2,025 10.6 -12.5°
Drops below altitude 10° 04:54:49 10° 307° (NW) 2,406 11.3 -12.0°
Sets 04:58:03 0° 328° (NNW) 3,322 12.3 -11.4°
